Location: Antist
(43.1184°N, 0.1270°E)
Time: 21:34:38
(UTC+00:00)

Okean-O - Pass Details

Date: 19 January 2020
Orbit: 639 x 640 km, 98.2° (Epoch: 28 February)

Event Time Altitude Azimuth Distance (km) Brightness Sun altitude
Rises 18:16:51 0° 179° (S) 2,930 6.2 -14.9°
Reaches altitude 10° 18:19:06 10° 185° (S) 2,026 5.4 -15.3°
Maximum altitude 18:23:23 49° 260° (W) 834 3.7 -16.1°
Drops below altitude 10° 18:27:42 10° 336° (NNW) 2,042 5.4 -16.8°
Sets 18:29:59 0° 342° (NNW) 2,956 6.1 -17.3°
